Location: ??
(35.1714°N, 128.2806°E)
Time: 14:39:26
(UTC+00:00)

Meteor 2-1 Rocket - Pass Details

Date: 29 October 2020
Orbit: 830 x 906 km, 81.3° (Epoch: 30 November)

Event Time Altitude Azimuth Distance (km) Brightness Sun altitude
Rises 21:11:53 0° 349° (NNW) 3,443 7.1 -7.6°
Reaches altitude 10° 21:14:18 10° 347° (NNW) 2,514 6.4 -7.2°
Maximum altitude 21:20:00 72° 264° (W) 924 4.3 -6.0°
Drops below altitude 10° 21:25:46 10° 181° (S) 2,549 6.9 -4.9°
Sets 21:28:14 0° 179° (S) 3,494 7.6 -4.4°
